• In Germany
  • List of Countries
  • For 7 days
  • Water Temperature
  • Satellite Maps
  • Weather Map
  • Weather Widgets
  • user-avatar
    Login

    Hourly Weather Banbridge

    Today, 21 June, Thursday

    Time Temperature Precipitation Wind Pressure Humidity
    00:00 +5°C° 0 mm 6 mps 760 mmHg 81%
    01:00 +5°C° 0 mm 6 mps 761 mmHg 83%
    02:00 +5°C° 0 mm 6 mps 761 mmHg 84%
    03:00 +5°C° 0 mm 6 mps 761 mmHg 86%
    04:00 +5°C° 0 mm 6 mps 762 mmHg 84%
    05:00 +7°C° 0 mm 6 mps 762 mmHg 82%
    06:00 +8°C° 0 mm 6 mps 763 mmHg 81%
    07:00 +9°C° 0 mm 6 mps 763 mmHg 76%
    08:00 +10°C° 0 mm 6 mps 763 mmHg 71%
    09:00 +11°C° 0 mm 6 mps 764 mmHg 66%
    10:00 +13°C° 0 mm 6 mps 764 mmHg 65%
    11:00 +13°C° 0 mm 6 mps 765 mmHg 64%
    12:00 +14°C° 0 mm 5 mps 765 mmHg 62%
    13:00 +14°C° 0 mm 5 mps 765 mmHg 62%
    14:00 +14°C° 0 mm 5 mps 765 mmHg 61%
    15:00 +14°C° 0 mm 5 mps 765 mmHg 61%
    16:00 +14°C° 0 mm 5 mps 766 mmHg 64%
    17:00 +13°C° 0 mm 5 mps 766 mmHg 67%
    18:00 +13°C° 0 mm 5 mps 766 mmHg 70%
    19:00 +12°C° 0 mm 5 mps 766 mmHg 75%
    20:00 +9°C° 0 mm 5 mps 767 mmHg 80%
    21:00 +8°C° 0 mm 4 mps 767 mmHg 85%
    22:00 +7°C° 0 mm 4 mps 767 mmHg 88%
    23:00 +6°C° 0 mm 4 mps 767 mmHg 91%

    Tomorrow, 22 June, Friday

    Time Temperature Precipitation Wind Pressure Humidity
    00:00 +5°C° 0 mm 4 mps 767 mmHg 95%
    01:00 +5°C° 0 mm 4 mps 767 mmHg 95%
    02:00 +5°C° 0 mm 4 mps 767 mmHg 95%
    03:00 +5°C° 0 mm 3 mps 767 mmHg 96%
    04:00 +5°C° 0 mm 3 mps 767 mmHg 94%
    05:00 +7°C° 0 mm 3 mps 767 mmHg 92%
    06:00 +8°C° 0 mm 3 mps 767 mmHg 91%
    07:00 +9°C° 0 mm 3 mps 767 mmHg 84%
    08:00 +11°C° 0 mm 3 mps 767 mmHg 77%
    09:00 +13°C° 0 mm 4 mps 767 mmHg 71%
    10:00 +14°C° 0 mm 3 mps 767 mmHg 67%
    11:00 +16°C° 0 mm 3 mps 767 mmHg 63%
    12:00 +17°C° 0 mm 3 mps 767 mmHg 59%
    13:00 +17°C° 0 mm 3 mps 767 mmHg 59%
    14:00 +18°C° 0 mm 3 mps 767 mmHg 60%
    15:00 +18°C° 0 mm 3 mps 766 mmHg 60%
    16:00 +18°C° 0 mm 3 mps 766 mmHg 63%
    17:00 +17°C° 0 mm 3 mps 766 mmHg 66%
    18:00 +17°C° 0 mm 3 mps 766 mmHg 70%
    19:00 +15°C° 0 mm 2 mps 766 mmHg 75%
    20:00 +14°C° 0 mm 2 mps 766 mmHg 81%
    21:00 +12°C° 0 mm 2 mps 766 mmHg 86%
    22:00 +10°C° 0 mm 2 mps 766 mmHg 89%
    23:00 +9°C° 0 mm 2 mps 766 mmHg 91%

    Day after tomorrow, 23 June, Saturday

    Time Temperature Precipitation Wind Pressure Humidity
    00:00 +8°C° 0 mm 2 mps 766 mmHg 94%
    01:00 +8°C° 0 mm 2 mps 765 mmHg 94%
    02:00 +7°C° 0 mm 2 mps 765 mmHg 95%
    03:00 +8°C° 0 mm 1 mps 765 mmHg 95%
    04:00 +9°C° 0 mm 1 mps 765 mmHg 94%
    05:00 +9°C° 0 mm 1 mps 765 mmHg 92%
    06:00 +10°C° 0 mm 1 mps 764 mmHg 90%
    07:00 +12°C° 0 mm 2 mps 764 mmHg 83%
    08:00 +13°C° 0 mm 2 mps 764 mmHg 76%
    09:00 +15°C° 0 mm 2 mps 764 mmHg 69%
    10:00 +16°C° 0 mm 2 mps 764 mmHg 65%
    11:00 +17°C° 0 mm 2 mps 764 mmHg 61%
    12:00 +18°C° 0 mm 2 mps 764 mmHg 58%
    13:00 +19°C° 0 mm 2 mps 764 mmHg 58%
    14:00 +19°C° 0 mm 2 mps 764 mmHg 58%
    15:00 +20°C° 0 mm 2 mps 763 mmHg 58%
    16:00 +19°C° 0 mm 2 mps 763 mmHg 62%
    17:00 +19°C° 0 mm 2 mps 763 mmHg 66%
    18:00 +18°C° 0 mm 2 mps 763 mmHg 71%
    19:00 +16°C° 0 mm 2 mps 763 mmHg 77%
    20:00 +15°C° 0 mm 2 mps 763 mmHg 84%
    21:00 +13°C° 0 mm 2 mps 763 mmHg 91%
    22:00 +12°C° 0 mm 2 mps 763 mmHg 92%
    23:00 +11°C° 0 mm 1 mps 762 mmHg 93%

    24 June, Sunday

    Time Temperature Precipitation Wind Pressure Humidity
    00:00 +11°C° 0 mm 1 mps 762 mmHg 94%
    01:00 +10°C° 0 mm 1 mps 762 mmHg 94%
    02:00 +10°C° 0 mm 1 mps 762 mmHg 94%
    03:00 +10°C° 0 mm 1 mps 762 mmHg 94%
    04:00 +11°C° 0 mm 1 mps 762 mmHg 93%
    05:00 +12°C° 0 mm 1 mps 761 mmHg 91%
    06:00 +13°C° 0 mm 1 mps 761 mmHg 90%
    07:00 +14°C° 0 mm 1 mps 761 mmHg 83%
    08:00 +16°C° 0 mm 2 mps 761 mmHg 75%
    09:00 +18°C° 0 mm 2 mps 761 mmHg 68%
    10:00 +19°C° 0 mm 2 mps 761 mmHg 66%
    11:00 +20°C° 0 mm 2 mps 761 mmHg 63%
    12:00 +21°C° 0 mm 2 mps 761 mmHg 61%
    13:00 +22°C° 0 mm 3 mps 761 mmHg 63%
    14:00 +22°C° 0 mm 3 mps 761 mmHg 65%
    15:00 +22°C° 0 mm 3 mps 761 mmHg 67%
    16:00 +22°C° 0 mm 3 mps 761 mmHg 70%
    17:00 +22°C° 0 mm 3 mps 761 mmHg 73%
    18:00 +21°C° 0 mm 3 mps 761 mmHg 76%
    19:00 +20°C° 0 mm 3 mps 761 mmHg 81%
    20:00 +18°C° 0 mm 3 mps 761 mmHg 86%
    21:00 +17°C° 0 mm 3 mps 761 mmHg 91%
    22:00 +16°C° 0 mm 3 mps 761 mmHg 92%
    23:00 +15°C° 0 mm 2 mps 761 mmHg 93%

    25 June, Monday

    Time Temperature Precipitation Wind Pressure Humidity
    00:00 +14°C° 0 mm 2 mps 761 mmHg 93%
    01:00 +14°C° 0 mm 2 mps 761 mmHg 94%
    02:00 +14°C° 0 mm 2 mps 760 mmHg 94%
    03:00 +13°C° 0 mm 1 mps 760 mmHg 95%
    04:00 +14°C° 0 mm 1 mps 760 mmHg 93%
    05:00 +14°C° 0 mm 1 mps 760 mmHg 92%
    06:00 +15°C° 0 mm 1 mps 760 mmHg 91%
    07:00 +17°C° 0 mm 2 mps 760 mmHg 85%
    08:00 +18°C° 0 mm 2 mps 760 mmHg 79%
    09:00 +20°C° 0 mm 2 mps 760 mmHg 72%
    10:00 +20°C° 0 mm 2 mps 760 mmHg 69%
    11:00 +21°C° 0 mm 3 mps 760 mmHg 65%
    12:00 +22°C° 0 mm 3 mps 760 mmHg 61%
    13:00 +22°C° 0 mm 3 mps 760 mmHg 61%
    14:00 +24°C° 0 mm 3 mps 760 mmHg 61%
    15:00 +24°C° 0 mm 3 mps 760 mmHg 61%
    16:00 +22°C° 0 mm 3 mps 759 mmHg 65%
    17:00 +22°C° 0 mm 3 mps 759 mmHg 69%
    18:00 +22°C° 0 mm 3 mps 759 mmHg 73%
    19:00 +20°C° 0 mm 3 mps 759 mmHg 79%
    20:00 +18°C° 0 mm 3 mps 759 mmHg 84%
    21:00 +17°C° 0 mm 2 mps 759 mmHg 89%
    22:00 +16°C° 0 mm 2 mps 759 mmHg 91%
    23:00 +16°C° 0 mm 2 mps 759 mmHg 92%

    26 June, Tuesday

    Time Temperature Precipitation Wind Pressure Humidity
    00:00 +15°C° 0 mm 2 mps 759 mmHg 93%
    01:00 +15°C° 0 mm 2 mps 759 mmHg 93%
    02:00 +15°C° 0 mm 2 mps 759 mmHg 94%
    03:00 +14°C° 0 mm 1 mps 759 mmHg 94%
    04:00 +15°C° 0 mm 1 mps 759 mmHg 93%
    05:00 +15°C° 0 mm 1 mps 759 mmHg 91%
    06:00 +16°C° 0 mm 1 mps 760 mmHg 90%
    07:00 +18°C° 0 mm 1 mps 760 mmHg 84%
    08:00 +20°C° 0 mm 1 mps 760 mmHg 78%
    09:00 +21°C° 0 mm 1 mps 760 mmHg 71%
    10:00 +22°C° 0 mm 1 mps 760 mmHg 68%
    11:00 +23°C° 0 mm 1 mps 760 mmHg 65%
    12:00 +24°C° 0 mm 1 mps 760 mmHg 62%
    13:00 +24°C° 0 mm 1 mps 760 mmHg 63%
    14:00 +25°C° 0 mm 2 mps 760 mmHg 63%
    15:00 +25°C° 0 mm 2 mps 760 mmHg 64%
    16:00 +24°C° 0 mm 2 mps 760 mmHg 67%
    17:00 +24°C° 0 mm 2 mps 760 mmHg 71%
    18:00 +24°C° 0 mm 2 mps 760 mmHg 75%
    19:00 +21°C° 0 mm 2 mps 761 mmHg 80%
    20:00 +20°C° 0 mm 1 mps 761 mmHg 85%
    21:00 +18°C° 0 mm 1 mps 761 mmHg 91%
    22:00 +18°C° 0 mm 1 mps 761 mmHg 91%
    23:00 +16°C° 0 mm 1 mps 761 mmHg 91%
    Show more